Location: Boitzum
(52.1496°N, 9.6943°E)
Time: 20:33:41
(UTC+00:00)

Cosmos 1295 Rocket - Pass Details

Date: 13 January 2026
Orbit: 942 x 994 km, 82.9° (Epoch: 16 February)

Event Time Altitude Azimuth Distance (km) Brightness Sun altitude
Rises 05:32:50 0° 198° (SSW) 3,699 7.5 -16.4°
Reaches altitude 10° 05:35:23 10° 201° (SSW) 2,752 6.8 -16.0°
Maximum altitude 05:41:41 66° 284° (WNW) 1,077 4.5 -15.0°
Drops below altitude 10° 05:47:58 10° 6° (N) 2,749 6.8 -14.1°
Sets 05:50:31 0° 10° (N) 3,695 7.5 -13.7°
